Time,TemperatureF,DewpointF,PressureIn,WindDirection,WindDirectionDegrees,WindSpeedMPH,WindSpeedGustMPH,Humidity,HourlyPrecipIn,Conditions,Clouds,dailyrainin,SoftwareType,DateUTC
2013-08-25 00:00:00,79.0,67.5,29.95,WNW,292,2.0,14.0,68,0.00,,,-99.99,Weather View 32 v60,2013-08-25 05:00:00,
2013-08-25 00:05:00,79.0,67.5,29.95,West,270,1.0,14.0,68,0.00,,,-99.99,Weather View 32 v60,2013-08-25 05:05:00,
2013-08-25 00:10:00,79.0,67.9,29.95,WSW,248,10.0,14.0,69,0.00,,,-99.99,Weather View 32 v60,2013-08-25 05:10:00,
2013-08-25 00:15:00,79.0,67.9,29.95,SSW,202,3.0,14.0,69,0.00,,,-99.99,Weather View 32 v60,2013-08-25 05:15:00,
2013-08-25 00:25:00,78.0,67.0,29.95,SSW,202,1.0,14.0,69,0.00,,,-99.99,Weather View 32 v60,2013-08-25 05:25:00,
2013-08-25 00:30:00,78.0,67.0,29.95,SSW,202,3.0,14.0,69,0.00,,,-99.99,Weather View 32 v60,2013-08-25 05:30:00,
2013-08-25 00:35:00,78.0,67.4,29.95,SW,225,2.0,14.0,70,0.00,,,-99.99,Weather View 32 v60,2013-08-25 05:35:00,
2013-08-25 00:40:00,78.0,67.4,29.95,WSW,248,8.0,14.0,70,0.00,,,-99.99,Weather View 32 v60,2013-08-25 05:40:00,
2013-08-25 00:45:00,78.0,67.4,29.95,WNW,292,3.0,14.0,70,0.00,,,-99.99,Weather View 32 v60,2013-08-25 05:45:00,
2013-08-25 00:50:00,78.0,67.4,29.95,SSW,202,3.0,14.0,70,0.00,,,-99.99,Weather View 32 v60,2013-08-25 05:50:00,
2013-08-25 00:55:00,78.0,67.4,29.95,SW,225,1.0,14.0,70,0.00,,,-99.99,Weather View 32 v60,2013-08-25 05:55:00,
2013-08-25 01:00:00,78.0,67.4,29.95,SSW,202,5.0,14.0,70,0.00,,,-99.99,Weather View 32 v60,2013-08-25 06:00:00,
2013-08-25 01:05:00,78.0,67.4,29.95,WSW,248,5.0,14.0,70,0.00,,,-99.99,Weather View 32 v60,2013-08-25 06:05:00,
2013-08-25 01:11:00,78.0,67.4,29.95,SW,225,4.0,14.0,70,0.00,,,-99.99,Weather View 32 v60,2013-08-25 06:11:00,
2013-08-25 01:20:00,78.0,67.4,29.95,WNW,292,2.0,12.0,70,0.00,,,-99.99,Weather View 32 v60,2013-08-25 06:20:00,
2013-08-25 01:25:00,78.0,67.4,29.95,WSW,248,2.0,12.0,70,0.00,,,-99.99,Weather View 32 v60,2013-08-25 06:25:00,
2013-08-25 01:30:00,78.0,67.8,29.95,SW,225,2.0,12.0,71,0.00,,,-99.99,Weather View 32 v60,2013-08-25 06:30:00,
2013-08-25 01:35:00,77.0,66.8,29.95,South,180,4.0,11.0,71,0.00,,,-99.99,Weather View 32 v60,2013-08-25 06:35:00,
2013-08-25 01:40:00,77.0,66.8,29.95,SSW,202,5.0,11.0,71,0.00,,,-99.99,Weather View 32 v60,2013-08-25 06:40:00,
2013-08-25 01:45:00,77.0,66.8,29.95,NNE,22,1.0,11.0,71,0.00,,,-99.99,Weather View 32 v60,2013-08-25 06:45:00,
2013-08-25 01:50:00,77.0,66.8,29.95,South,180,2.0,11.0,71,0.00,,,-99.99,Weather View 32 v60,2013-08-25 06:50:00,
2013-08-25 01:55:00,77.0,66.8,29.95,SW,225,5.0,11.0,71,0.00,,,-99.99,Weather View 32 v60,2013-08-25 06:55:00,
2013-08-25 02:00:00,77.0,66.8,29.95,SW,225,7.0,11.0,71,0.00,,,-99.99,Weather View 32 v60,2013-08-25 07:00:00,
2013-08-25 02:05:00,77.0,67.2,29.96,NW,315,1.0,11.0,72,0.00,,,-99.99,Weather View 32 v60,2013-08-25 07:05:00,
2013-08-25 02:10:00,77.0,67.2,29.96,WSW,248,1.0,11.0,72,0.00,,,-99.99,Weather View 32 v60,2013-08-25 07:10:00,
2013-08-25 02:15:00,77.0,67.2,29.96,WSW,248,3.0,10.0,72,0.00,,,-99.99,Weather View 32 v60,2013-08-25 07:15:00,
2013-08-25 02:20:00,77.0,67.2,29.95,SW,225,1.0,10.0,72,0.00,,,-99.99,Weather View 32 v60,2013-08-25 07:20:00,
2013-08-25 02:25:00,77.0,67.2,29.95,West,270,3.0,10.0,72,0.00,,,-99.99,Weather View 32 v60,2013-08-25 07:25:00,
2013-08-25 02:30:00,77.0,67.2,29.96,SSW,202,1.0,10.0,72,0.00,,,-99.99,Weather View 32 v60,2013-08-25 07:30:00,
2013-08-25 02:35:00,77.0,67.2,29.96,SW,225,0.0,10.0,72,0.00,,,-99.99,Weather View 32 v60,2013-08-25 07:35:00,
2013-08-25 02:40:00,76.0,66.3,29.96,West,270,5.0,8.0,72,0.00,,,-99.99,Weather View 32 v60,2013-08-25 07:40:00,
2013-08-25 02:45:00,76.0,66.3,29.96,WNW,292,3.0,8.0,72,0.00,,,-99.99,Weather View 32 v60,2013-08-25 07:45:00,
2013-08-25 02:50:00,76.0,66.3,29.96,WSW,248,3.0,8.0,72,0.00,,,-99.99,Weather View 32 v60,2013-08-25 07:50:00,
2013-08-25 03:00:00,76.0,66.7,29.96,SW,225,1.0,8.0,73,0.00,,,-99.99,Weather View 32 v60,2013-08-25 08:00:00,
2013-08-25 03:05:00,76.0,66.7,29.96,SE,135,1.0,8.0,73,0.00,,,-99.99,Weather View 32 v60,2013-08-25 08:05:00,
2013-08-25 03:10:00,76.0,66.7,29.96,SSW,202,3.0,8.0,73,0.00,,,-99.99,Weather View 32 v60,2013-08-25 08:10:00,
2013-08-25 03:15:00,76.0,67.1,29.95,WSW,248,3.0,9.0,74,0.00,,,-99.99,Weather View 32 v60,2013-08-25 08:15:00,
2013-08-25 03:25:00,76.0,67.1,29.95,SSW,202,3.0,9.0,74,0.00,,,-99.99,Weather View 32 v60,2013-08-25 08:25:00,
2013-08-25 03:30:00,76.0,67.1,29.95,WSW,248,5.0,9.0,74,0.00,,,-99.99,Weather View 32 v60,2013-08-25 08:30:00,
2013-08-25 03:35:00,75.0,66.1,29.95,WSW,248,3.0,10.0,74,0.00,,,-99.99,Weather View 32 v60,2013-08-25 08:35:00,
2013-08-25 03:40:00,75.0,66.1,29.95,West,270,3.0,10.0,74,0.00,,,-99.99,Weather View 32 v60,2013-08-25 08:40:00,
2013-08-25 03:50:00,75.0,66.5,29.95,South,180,2.0,10.0,75,0.00,,,-99.99,Weather View 32 v60,2013-08-25 08:50:00,
2013-08-25 03:55:00,75.0,66.5,29.95,WNW,292,2.0,10.0,75,0.00,,,-99.99,Weather View 32 v60,2013-08-25 08:55:00,
2013-08-25 04:00:00,75.0,66.5,29.96,NW,315,4.0,10.0,75,0.00,,,-99.99,Weather View 32 v60,2013-08-25 09:00:00,
2013-08-25 04:05:00,76.0,67.5,29.96,SSW,202,3.0,10.0,75,0.00,,,-99.99,Weather View 32 v60,2013-08-25 09:05:00,
2013-08-25 04:10:00,76.0,67.5,29.95,SW,225,3.0,10.0,75,0.00,,,-99.99,Weather View 32 v60,2013-08-25 09:10:00,
2013-08-25 04:15:00,75.0,66.5,29.95,SW,225,3.0,10.0,75,0.00,,,-99.99,Weather View 32 v60,2013-08-25 09:15:00,
2013-08-25 04:20:00,75.0,66.5,29.96,SW,225,2.0,10.0,75,0.00,,,-99.99,Weather View 32 v60,2013-08-25 09:20:00,
2013-08-25 04:25:00,75.0,66.5,29.96,SSW,202,3.0,10.0,75,0.00,,,-99.99,Weather View 32 v60,2013-08-25 09:25:00,
2013-08-25 04:30:00,75.0,66.5,29.96,NW,315,3.0,10.0,75,0.00,,,-99.99,Weather View 32 v60,2013-08-25 09:30:00,
2013-08-25 04:40:00,75.0,66.5,29.96,SSE,158,3.0,8.0,75,0.00,,,-99.99,Weather View 32 v60,2013-08-25 09:40:00,
2013-08-25 04:45:00,75.0,66.5,29.96,SW,225,3.0,8.0,75,0.00,,,-99.99,Weather View 32 v60,2013-08-25 09:45:00,
2013-08-25 04:50:00,75.0,66.5,29.96,SW,225,6.0,8.0,75,0.00,,,-99.99,Weather View 32 v60,2013-08-25 09:50:00,
2013-08-25 04:55:00,75.0,66.5,29.96,West,270,3.0,8.0,75,0.00,,,-99.99,Weather View 32 v60,2013-08-25 09:55:00,
2013-08-25 05:00:00,76.0,67.5,29.96,WSW,248,3.0,10.0,75,0.00,,,-99.99,Weather View 32 v60,2013-08-25 10:00:00,
2013-08-25 05:05:00,76.0,67.5,29.96,WSW,248,2.0,10.0,75,0.00,,,-99.99,Weather View 32 v60,2013-08-25 10:05:00,
2013-08-25 05:10:00,76.0,67.5,29.96,WSW,248,0.0,10.0,75,0.00,,,-99.99,Weather View 32 v60,2013-08-25 10:10:00,
2013-08-25 05:15:00,75.0,66.5,29.96,SSW,202,0.0,10.0,75,0.00,,,-99.99,Weather View 32 v60,2013-08-25 10:15:00,
2013-08-25 05:20:00,75.0,66.5,29.96,NE,45,1.0,10.0,75,0.00,,,-99.99,Weather View 32 v60,2013-08-25 10:20:00,
2013-08-25 05:25:00,75.0,66.5,29.96,West,270,4.0,10.0,75,0.00,,,-99.99,Weather View 32 v60,2013-08-25 10:25:00,
2013-08-25 05:30:00,75.0,66.5,29.96,NW,315,3.0,11.0,75,0.00,,,-99.99,Weather View 32 v60,2013-08-25 10:30:00,
2013-08-25 05:35:00,75.0,66.9,29.96,WNW,292,3.0,11.0,76,0.00,,,-99.99,Weather View 32 v60,2013-08-25 10:35:00,
2013-08-25 05:45:00,75.0,66.9,29.96,SW,225,3.0,11.0,76,0.00,,,-99.99,Weather View 32 v60,2013-08-25 10:45:00,
2013-08-25 05:50:00,75.0,66.9,29.96,WSW,248,1.0,11.0,76,0.00,,,-99.99,Weather View 32 v60,2013-08-25 10:50:00,
2013-08-25 05:55:00,75.0,66.9,29.96,West,270,3.0,11.0,76,0.00,,,-99.99,Weather View 32 v60,2013-08-25 10:55:00,
2013-08-25 06:00:00,75.0,66.5,29.96,SE,135,0.0,11.0,75,0.00,,,-99.99,Weather View 32 v60,2013-08-25 11:00:00,
2013-08-25 06:05:00,75.0,66.9,29.97,WNW,292,1.0,11.0,76,0.00,,,-99.99,Weather View 32 v60,2013-08-25 11:05:00,
2013-08-25 06:14:00,75.0,66.9,29.97,SW,225,1.0,11.0,76,0.00,,,-99.99,Weather View 32 v60,2013-08-25 11:14:00,
2013-08-25 06:20:00,75.0,66.9,29.97,SW,225,1.0,11.0,76,0.00,,,-99.99,Weather View 32 v60,2013-08-25 11:20:00,
2013-08-25 06:25:00,75.0,66.9,29.97,WSW,248,5.0,11.0,76,0.00,,,-99.99,Weather View 32 v60,2013-08-25 11:25:00,
2013-08-25 06:30:00,75.0,66.9,29.97,WSW,248,1.0,11.0,76,0.00,,,-99.99,Weather View 32 v60,2013-08-25 11:30:00,
2013-08-25 06:35:00,75.0,66.9,29.97,South,180,4.0,11.0,76,0.00,,,-99.99,Weather View 32 v60,2013-08-25 11:35:00,
2013-08-25 06:40:00,75.0,66.9,29.97,WSW,248,3.0,11.0,76,0.00,,,-99.99,Weather View 32 v60,2013-08-25 11:40:00,
2013-08-25 06:50:00,75.0,66.9,29.98,SW,225,2.0,10.0,76,0.00,,,-99.99,Weather View 32 v60,2013-08-25 11:50:00,
2013-08-25 06:55:00,75.0,66.9,29.98,West,270,5.0,10.0,76,0.00,,,-99.99,Weather View 32 v60,2013-08-25 11:55:00,
2013-08-25 07:00:00,76.0,67.9,29.98,East,90,1.0,10.0,76,0.00,,,-99.99,Weather View 32 v60,2013-08-25 12:00:00,
2013-08-25 07:05:00,76.0,67.9,29.98,SW,225,7.0,10.0,76,0.00,,,-99.99,Weather View 32 v60,2013-08-25 12:05:00,
2013-08-25 07:10:00,76.0,67.9,29.99,SW,225,4.0,10.0,76,0.00,,,-99.99,Weather View 32 v60,2013-08-25 12:10:00,
2013-08-25 07:15:00,76.0,67.5,29.99,WNW,292,1.0,10.0,75,0.00,,,-99.99,Weather View 32 v60,2013-08-25 12:15:00,
2013-08-25 07:25:00,77.0,68.0,29.99,West,270,2.0,10.0,74,0.00,,,-99.99,Weather View 32 v60,2013-08-25 12:25:00,
2013-08-25 07:30:00,77.0,68.0,29.99,WSW,248,2.0,10.0,74,0.00,,,-99.99,Weather View 32 v60,2013-08-25 12:30:00,
2013-08-25 07:35:00,77.0,68.0,29.99,WSW,248,3.0,11.0,74,0.00,,,-99.99,Weather View 32 v60,2013-08-25 12:35:00,
2013-08-25 07:40:00,78.0,69.0,29.99,NW,315,6.0,11.0,74,0.00,,,-99.99,Weather View 32 v60,2013-08-25 12:40:00,
2013-08-25 07:45:00,78.0,68.6,29.99,WSW,248,2.0,11.0,73,0.00,,,-99.99,Weather View 32 v60,2013-08-25 12:45:00,
2013-08-25 07:50:00,78.0,68.6,29.99,NNW,338,4.0,11.0,73,0.00,,,-99.99,Weather View 32 v60,2013-08-25 12:50:00,
2013-08-25 07:55:00,78.0,68.6,29.99,WNW,292,2.0,11.0,73,0.00,,,-99.99,Weather View 32 v60,2013-08-25 12:55:00,
2013-08-25 08:00:00,78.0,68.6,29.99,SW,225,3.0,11.0,73,0.00,,,-99.99,Weather View 32 v60,2013-08-25 13:00:00,
2013-08-25 08:05:00,78.0,68.6,30.00,SSW,202,4.0,11.0,73,0.00,,,-99.99,Weather View 32 v60,2013-08-25 13:05:00,
2013-08-25 08:10:00,78.0,68.2,29.99,NNW,338,2.0,11.0,72,0.00,,,-99.99,Weather View 32 v60,2013-08-25 13:10:00,
2013-08-25 08:15:00,78.0,68.6,29.99,WSW,248,2.0,11.0,73,0.00,,,-99.99,Weather View 32 v60,2013-08-25 13:15:00,
2013-08-25 08:20:00,79.0,69.2,30.00,SSW,202,5.0,11.0,72,0.00,,,-99.99,Weather View 32 v60,2013-08-25 13:20:00,
2013-08-25 08:25:00,79.0,69.2,30.00,WSW,248,3.0,11.0,72,0.00,,,-99.99,Weather View 32 v60,2013-08-25 13:25:00,
2013-08-25 08:30:00,79.0,69.2,30.00,NNW,338,2.0,11.0,72,0.00,,,-99.99,Weather View 32 v60,2013-08-25 13:30:00,
2013-08-25 08:35:00,79.0,68.8,29.99,WSW,248,6.0,9.0,71,0.00,,,-99.99,Weather View 32 v60,2013-08-25 13:35:00,
2013-08-25 08:40:00,79.0,68.8,29.99,SW,225,3.0,9.0,71,0.00,,,-99.99,Weather View 32 v60,2013-08-25 13:40:00,
2013-08-25 08:45:00,79.0,68.3,29.99,SSW,202,4.0,9.0,70,0.00,,,-99.99,Weather View 32 v60,2013-08-25 13:45:00,
2013-08-25 08:55:00,80.0,69.7,30.00,WSW,248,3.0,10.0,71,0.00,,,-99.99,Weather View 32 v60,2013-08-25 13:55:00,
2013-08-25 09:00:00,81.0,70.2,30.00,West,270,3.0,10.0,70,0.00,,,-99.99,Weather View 32 v60,2013-08-25 14:00:00,
2013-08-25 09:05:00,81.0,69.8,30.00,SW,225,2.0,10.0,69,0.00,,,-99.99,Weather View 32 v60,2013-08-25 14:05:00,
2013-08-25 09:10:00,82.0,70.3,29.99,SW,225,4.0,10.0,68,0.00,,,-99.99,Weather View 32 v60,2013-08-25 14:10:00,
2013-08-25 09:15:00,82.0,70.3,29.99,SW,225,4.0,10.0,68,0.00,,,-99.99,Weather View 32 v60,2013-08-25 14:15:00,
2013-08-25 09:20:00,83.0,70.4,29.99,West,270,9.0,11.0,66,0.00,,,-99.99,Weather View 32 v60,2013-08-25 14:20:00,
2013-08-25 09:25:00,83.0,70.4,29.98,SW,225,8.0,12.0,66,0.00,,,-99.99,Weather View 32 v60,2013-08-25 14:25:00,
2013-08-25 09:30:00,83.0,69.5,29.99,SW,225,8.0,12.0,64,0.00,,,-99.99,Weather View 32 v60,2013-08-25 14:30:00,
2013-08-25 09:35:00,83.0,70.0,29.98,SSW,202,2.0,12.0,65,0.00,,,-99.99,Weather View 32 v60,2013-08-25 14:35:00,
2013-08-25 09:40:00,83.0,69.5,29.98,WSW,248,5.0,12.0,64,0.00,,,-99.99,Weather View 32 v60,2013-08-25 14:40:00,
2013-08-25 09:45:00,83.0,69.1,29.98,WSW,248,5.0,12.0,63,0.00,,,-99.99,Weather View 32 v60,2013-08-25 14:45:00,
2013-08-25 09:55:00,84.0,69.5,29.98,West,270,2.0,12.0,62,0.00,,,-99.99,Weather View 32 v60,2013-08-25 14:55:00,
2013-08-25 10:00:00,85.0,70.5,29.98,WSW,248,4.0,12.0,62,0.00,,,-99.99,Weather View 32 v60,2013-08-25 15:00:00,
2013-08-25 10:05:00,85.0,70.0,29.98,West,270,5.0,12.0,61,0.00,,,-99.99,Weather View 32 v60,2013-08-25 15:05:00,
2013-08-25 10:10:00,85.0,69.5,29.98,WSW,248,3.0,12.0,60,0.00,,,-99.99,Weather View 32 v60,2013-08-25 15:10:00,
2013-08-25 10:16:00,85.0,69.0,29.98,SW,225,3.0,13.0,59,0.00,,,-99.99,Weather View 32 v60,2013-08-25 15:16:00,
2013-08-25 10:25:00,86.0,69.9,29.98,West,270,3.0,16.0,59,0.00,,,-99.99,Weather View 32 v60,2013-08-25 15:25:00,
2013-08-25 10:30:00,86.0,69.4,29.98,SSW,202,5.0,16.0,58,0.00,,,-99.99,Weather View 32 v60,2013-08-25 15:30:00,
2013-08-25 10:35:00,86.0,68.9,29.97,SW,225,12.0,16.0,57,0.00,,,-99.99,Weather View 32 v60,2013-08-25 15:35:00,
2013-08-25 10:40:00,86.0,68.9,29.98,WSW,248,5.0,18.0,57,0.00,,,-99.99,Weather View 32 v60,2013-08-25 15:40:00,
2013-08-25 10:45:00,87.0,69.9,29.97,West,270,6.0,18.0,57,0.00,,,-99.99,Weather View 32 v60,2013-08-25 15:45:00,
2013-08-25 10:50:00,87.0,69.9,29.97,NW,315,5.0,18.0,57,0.00,,,-99.99,Weather View 32 v60,2013-08-25 15:50:00,
2013-08-25 10:55:00,87.0,69.9,29.97,WSW,248,8.0,18.0,57,0.00,,,-99.99,Weather View 32 v60,2013-08-25 15:55:00,
2013-08-25 11:00:00,87.0,69.3,29.97,NW,315,6.0,18.0,56,0.00,,,-99.99,Weather View 32 v60,2013-08-25 16:00:00,
2013-08-25 11:10:00,87.0,68.8,29.97,West,270,6.0,18.0,55,0.00,,,-99.99,Weather View 32 v60,2013-08-25 16:10:00,
2013-08-25 11:15:00,87.0,68.3,29.97,WNW,292,5.0,18.0,54,0.00,,,-99.99,Weather View 32 v60,2013-08-25 16:15:00,
2013-08-25 11:20:00,87.0,68.3,29.97,SSW,202,4.0,18.0,54,0.00,,,-99.99,Weather View 32 v60,2013-08-25 16:20:00,
2013-08-25 11:25:00,87.0,68.8,29.96,NW,315,5.0,18.0,55,0.00,,,-99.99,Weather View 32 v60,2013-08-25 16:25:00,
2013-08-25 11:30:00,87.0,68.8,29.97,NW,315,6.0,18.0,55,0.00,,,-99.99,Weather View 32 v60,2013-08-25 16:30:00,
2013-08-25 11:35:00,88.0,69.2,29.96,WNW,292,3.0,18.0,54,0.00,,,-99.99,Weather View 32 v60,2013-08-25 16:35:00,
2013-08-25 11:40:00,88.0,69.2,29.96,WSW,248,8.0,18.0,54,0.00,,,-99.99,Weather View 32 v60,2013-08-25 16:40:00,
2013-08-25 11:45:00,88.0,69.2,29.96,SW,225,11.0,18.0,54,0.00,,,-99.99,Weather View 32 v60,2013-08-25 16:45:00,
2013-08-25 11:55:00,89.0,69.0,29.95,West,270,3.0,18.0,52,0.00,,,-99.99,Weather View 32 v60,2013-08-25 16:55:00,
2013-08-25 12:00:00,89.0,68.4,29.95,WSW,248,6.0,18.0,51,0.00,,,-99.99,Weather View 32 v60,2013-08-25 17:00:00,
2013-08-25 12:05:00,89.0,69.0,29.95,SW,225,8.0,18.0,52,0.00,,,-99.99,Weather View 32 v60,2013-08-25 17:05:00,
2013-08-25 12:10:00,89.0,69.0,29.95,WNW,292,6.0,18.0,52,0.00,,,-99.99,Weather View 32 v60,2013-08-25 17:10:00,
2013-08-25 12:15:00,90.0,69.4,29.95,West,270,8.0,18.0,51,0.00,,,-99.99,Weather View 32 v60,2013-08-25 17:15:00,
2013-08-25 12:20:00,90.0,69.4,29.94,SSW,202,4.0,18.0,51,0.00,,,-99.99,Weather View 32 v60,2013-08-25 17:20:00,
2013-08-25 12:30:00,90.0,68.2,29.94,West,270,6.0,18.0,49,0.00,,,-99.99,Weather View 32 v60,2013-08-25 17:30:00,
2013-08-25 12:35:00,90.0,67.6,29.94,West,270,9.0,18.0,48,0.00,,,-99.99,Weather View 32 v60,2013-08-25 17:35:00,
2013-08-25 12:40:00,90.0,68.2,29.94,SSW,202,5.0,18.0,49,0.00,,,-99.99,Weather View 32 v60,2013-08-25 17:40:00,
2013-08-25 12:45:00,91.0,69.1,29.94,WNW,292,3.0,18.0,49,0.00,,,-99.99,Weather View 32 v60,2013-08-25 17:45:00,
2013-08-25 12:55:00,91.0,68.5,29.94,SSW,202,5.0,18.0,48,0.00,,,-99.99,Weather View 32 v60,2013-08-25 17:55:00,
2013-08-25 13:00:00,91.0,67.9,29.94,West,270,10.0,18.0,47,0.00,,,-99.99,Weather View 32 v60,2013-08-25 18:00:00,
2013-08-25 13:05:00,91.0,67.9,29.94,WNW,292,7.0,18.0,47,0.00,,,-99.99,Weather View 32 v60,2013-08-25 18:05:00,
2013-08-25 13:10:00,91.0,68.5,29.93,West,270,5.0,18.0,48,0.00,,,-99.99,Weather View 32 v60,2013-08-25 18:10:00,
2013-08-25 13:15:00,92.0,69.4,29.94,SW,225,5.0,18.0,48,0.00,,,-99.99,Weather View 32 v60,2013-08-25 18:15:00,
2013-08-25 13:20:00,92.0,68.8,29.94,SW,225,5.0,18.0,47,0.00,,,-99.99,Weather View 32 v60,2013-08-25 18:20:00,
2013-08-25 13:25:00,92.0,68.2,29.93,SSW,202,6.0,18.0,46,0.00,,,-99.99,Weather View 32 v60,2013-08-25 18:25:00,
2013-08-25 13:30:00,92.0,67.5,29.94,WSW,248,10.0,17.0,45,0.00,,,-99.99,Weather View 32 v60,2013-08-25 18:30:00,
2013-08-25 13:35:00,92.0,68.2,29.94,WSW,248,12.0,17.0,46,0.00,,,-99.99,Weather View 32 v60,2013-08-25 18:35:00,
2013-08-25 13:40:00,92.0,68.2,29.93,West,270,5.0,17.0,46,0.00,,,-99.99,Weather View 32 v60,2013-08-25 18:40:00,
2013-08-25 13:45:00,93.0,69.1,29.93,WNW,292,3.0,17.0,46,0.00,,,-99.99,Weather View 32 v60,2013-08-25 18:45:00,
2013-08-25 13:50:00,93.0,68.4,29.93,SSW,202,6.0,17.0,45,0.00,,,-99.99,Weather View 32 v60,2013-08-25 18:50:00,
2013-08-25 14:00:00,93.0,67.8,29.92,West,270,6.0,15.0,44,0.00,,,-99.99,Weather View 32 v60,2013-08-25 19:00:00,
2013-08-25 14:05:00,94.0,68.0,29.92,SW,225,11.0,15.0,43,0.00,,,-99.99,Weather View 32 v60,2013-08-25 19:05:00,
2013-08-25 14:10:00,94.0,68.0,29.92,WSW,248,4.0,15.0,43,0.00,,,-99.99,Weather View 32 v60,2013-08-25 19:10:00,
2013-08-25 14:15:00,95.0,68.9,29.92,SW,225,7.0,15.0,43,0.00,,,-99.99,Weather View 32 v60,2013-08-25 19:15:00,
2013-08-25 14:20:00,95.0,68.2,29.92,SW,225,5.0,15.0,42,0.00,,,-99.99,Weather View 32 v60,2013-08-25 19:20:00,
2013-08-25 14:25:00,95.0,68.2,29.92,West,270,4.0,15.0,42,0.00,,,-99.99,Weather View 32 v60,2013-08-25 19:25:00,
2013-08-25 14:30:00,95.0,68.2,29.91,WNW,292,6.0,15.0,42,0.00,,,-99.99,Weather View 32 v60,2013-08-25 19:30:00,
2013-08-25 14:35:00,96.0,69.1,29.91,SW,225,8.0,15.0,42,0.00,,,-99.99,Weather View 32 v60,2013-08-25 19:35:00,
2013-08-25 14:40:00,96.0,68.4,29.91,SSW,202,6.0,15.0,41,0.00,,,-99.99,Weather View 32 v60,2013-08-25 19:40:00,
2013-08-25 14:45:00,96.0,68.4,29.91,SW,225,3.0,15.0,41,0.00,,,-99.99,Weather View 32 v60,2013-08-25 19:45:00,
2013-08-25 14:50:00,96.0,68.4,29.91,West,270,4.0,15.0,41,0.00,,,-99.99,Weather View 32 v60,2013-08-25 19:50:00,
2013-08-25 14:55:00,96.0,67.7,29.91,WSW,248,3.0,14.0,40,0.00,,,-99.99,Weather View 32 v60,2013-08-25 19:55:00,
2013-08-25 15:00:00,97.0,68.6,29.91,WNW,292,6.0,14.0,40,0.00,,,-99.99,Weather View 32 v60,2013-08-25 20:00:00,
2013-08-25 15:05:00,97.0,68.6,29.90,SW,225,8.0,14.0,40,0.00,,,-99.99,Weather View 32 v60,2013-08-25 20:05:00,
2013-08-25 15:10:00,97.0,67.8,29.90,WSW,248,6.0,14.0,39,0.00,,,-99.99,Weather View 32 v60,2013-08-25 20:10:00,
2013-08-25 15:15:00,97.0,67.8,29.90,SW,225,6.0,15.0,39,0.00,,,-99.99,Weather View 32 v60,2013-08-25 20:15:00,
2013-08-25 15:20:00,97.0,67.8,29.90,SW,225,5.0,15.0,39,0.00,,,-99.99,Weather View 32 v60,2013-08-25 20:20:00,
2013-08-25 15:25:00,97.0,67.8,29.90,WNW,292,8.0,15.0,39,0.00,,,-99.99,Weather View 32 v60,2013-08-25 20:25:00,
2013-08-25 15:30:00,97.0,67.1,29.89,WSW,248,6.0,15.0,38,0.00,,,-99.99,Weather View 32 v60,2013-08-25 20:30:00,
2013-08-25 15:35:00,97.0,67.8,29.90,SSW,202,3.0,15.0,39,0.00,,,-99.99,Weather View 32 v60,2013-08-25 20:35:00,
2013-08-25 15:40:00,97.0,67.8,29.89,NNW,338,5.0,15.0,39,0.00,,,-99.99,Weather View 32 v60,2013-08-25 20:40:00,
2013-08-25 15:45:00,97.0,67.8,29.89,West,270,1.0,15.0,39,0.00,,,-99.99,Weather View 32 v60,2013-08-25 20:45:00,
2013-08-25 15:50:00,98.0,68.7,29.89,SSE,158,7.0,15.0,39,0.00,,,-99.99,Weather View 32 v60,2013-08-25 20:50:00,
2013-08-25 15:55:00,98.0,67.9,29.89,WSW,248,10.0,15.0,38,0.00,,,-99.99,Weather View 32 v60,2013-08-25 20:55:00,
2013-08-25 16:05:00,97.0,67.8,29.89,SW,225,7.0,15.0,39,0.00,,,-99.99,Weather View 32 v60,2013-08-25 21:05:00,
2013-08-25 16:10:00,97.0,67.8,29.89,NE,45,3.0,15.0,39,0.00,,,-99.99,Weather View 32 v60,2013-08-25 21:10:00,
2013-08-25 16:15:00,98.0,68.7,29.89,NNE,22,3.0,15.0,39,0.00,,,-99.99,Weather View 32 v60,2013-08-25 21:15:00,
2013-08-25 16:20:00,98.0,67.9,29.89,WSW,248,5.0,15.0,38,0.00,,,-99.99,Weather View 32 v60,2013-08-25 21:20:00,
2013-08-25 16:25:00,98.0,68.7,29.89,SW,225,7.0,15.0,39,0.00,,,-99.99,Weather View 32 v60,2013-08-25 21:25:00,
2013-08-25 16:30:00,97.0,67.8,29.88,SSW,202,6.0,15.0,39,0.00,,,-99.99,Weather View 32 v60,2013-08-25 21:30:00,
2013-08-25 16:35:00,96.0,67.7,29.88,SSW,202,4.0,19.0,40,0.00,,,-99.99,Weather View 32 v60,2013-08-25 21:35:00,
2013-08-25 16:40:00,96.0,68.4,29.88,SW,225,2.0,19.0,41,0.00,,,-99.99,Weather View 32 v60,2013-08-25 21:40:00,
2013-08-25 16:45:00,97.0,68.6,29.88,WSW,248,6.0,19.0,40,0.00,,,-99.99,Weather View 32 v60,2013-08-25 21:45:00,
2013-08-25 16:50:00,97.0,69.3,29.88,SSW,202,4.0,19.0,41,0.00,,,-99.99,Weather View 32 v60,2013-08-25 21:50:00,
2013-08-25 17:00:00,97.0,69.3,29.89,WNW,292,5.0,19.0,41,0.00,,,-99.99,Weather View 32 v60,2013-08-25 22:00:00,
2013-08-25 17:05:00,96.0,68.4,29.88,WNW,292,4.0,19.0,41,0.00,,,-99.99,Weather View 32 v60,2013-08-25 22:05:00,
2013-08-25 17:10:00,97.0,69.3,29.88,WSW,248,7.0,19.0,41,0.00,,,-99.99,Weather View 32 v60,2013-08-25 22:10:00,
2013-08-25 17:20:00,97.0,69.3,29.88,WSW,248,13.0,19.0,41,0.00,,,-99.99,Weather View 32 v60,2013-08-25 22:20:00,
2013-08-25 17:25:00,96.0,67.7,29.89,SW,225,10.0,19.0,40,0.00,,,-99.99,Weather View 32 v60,2013-08-25 22:25:00,
2013-08-25 17:30:00,96.0,68.4,29.89,SW,225,6.0,19.0,41,0.00,,,-99.99,Weather View 32 v60,2013-08-25 22:30:00,
2013-08-25 17:35:00,96.0,68.4,29.89,SSE,158,10.0,15.0,41,0.00,,,-99.99,Weather View 32 v60,2013-08-25 22:35:00,
2013-08-25 17:40:00,96.0,68.4,29.89,WNW,292,5.0,15.0,41,0.00,,,-99.99,Weather View 32 v60,2013-08-25 22:40:00,
2013-08-25 17:45:00,96.0,68.4,29.89,West,270,3.0,14.0,41,0.00,,,-99.99,Weather View 32 v60,2013-08-25 22:45:00,
2013-08-25 17:50:00,97.0,69.3,29.89,SSW,202,8.0,14.0,41,0.00,,,-99.99,Weather View 32 v60,2013-08-25 22:50:00,
2013-08-25 18:00:00,96.0,68.4,29.89,WSW,248,6.0,14.0,41,0.00,,,-99.99,Weather View 32 v60,2013-08-25 23:00:00,
2013-08-25 18:05:00,96.0,69.1,29.89,WSW,248,7.0,14.0,42,0.00,,,-99.99,Weather View 32 v60,2013-08-25 23:05:00,
2013-08-25 18:10:00,95.0,68.2,29.89,WNW,292,3.0,14.0,42,0.00,,,-99.99,Weather View 32 v60,2013-08-25 23:10:00,
2013-08-25 18:15:00,95.0,68.9,29.89,SW,225,3.0,14.0,43,0.00,,,-99.99,Weather View 32 v60,2013-08-25 23:15:00,
2013-08-25 18:25:00,94.0,68.7,29.89,SW,225,6.0,13.0,44,0.00,,,-99.99,Weather View 32 v60,2013-08-25 23:25:00,
2013-08-25 18:30:00,93.0,67.8,29.89,SSW,202,4.0,13.0,44,0.00,,,-99.99,Weather View 32 v60,2013-08-25 23:30:00,
2013-08-25 18:35:00,93.0,68.4,29.89,SW,225,3.0,13.0,45,0.00,,,-99.99,Weather View 32 v60,2013-08-25 23:35:00,
2013-08-25 18:40:00,93.0,69.1,29.89,WSW,248,6.0,13.0,46,0.00,,,-99.99,Weather View 32 v60,2013-08-25 23:40:00,
2013-08-25 18:45:00,92.0,68.2,29.89,WSW,248,4.0,13.0,46,0.00,,,-99.99,Weather View 32 v60,2013-08-25 23:45:00,
2013-08-25 18:50:00,92.0,68.8,29.89,SSW,202,8.0,13.0,47,0.00,,,-99.99,Weather View 32 v60,2013-08-25 23:50:00,
2013-08-25 18:55:00,92.0,68.8,29.89,WSW,248,7.0,13.0,47,0.00,,,-99.99,Weather View 32 v60,2013-08-25 23:55:00,
2013-08-25 19:00:00,92.0,69.4,29.89,WNW,292,5.0,13.0,48,0.00,,,-99.99,Weather View 32 v60,2013-08-26 00:00:00,
2013-08-25 19:05:00,91.0,68.5,29.89,SSE,158,4.0,13.0,48,0.00,,,-99.99,Weather View 32 v60,2013-08-26 00:05:00,
2013-08-25 19:10:00,91.0,68.5,29.89,WSW,248,8.0,13.0,48,0.00,,,-99.99,Weather View 32 v60,2013-08-26 00:10:00,
2013-08-25 19:15:00,91.0,69.1,29.89,West,270,8.0,13.0,49,0.00,,,-99.99,Weather View 32 v60,2013-08-26 00:15:00,
2013-08-25 19:21:00,90.0,68.8,29.89,SW,225,5.0,13.0,50,0.00,,,-99.99,Weather View 32 v60,2013-08-26 00:21:00,
2013-08-25 19:30:00,90.0,69.4,29.89,West,270,8.0,13.0,51,0.00,,,-99.99,Weather View 32 v60,2013-08-26 00:30:00,
2013-08-25 19:35:00,89.0,69.0,29.89,WSW,248,4.0,13.0,52,0.00,,,-99.99,Weather View 32 v60,2013-08-26 00:35:00,
2013-08-25 19:40:00,89.0,69.0,29.89,West,270,3.0,13.0,52,0.00,,,-99.99,Weather View 32 v60,2013-08-26 00:40:00,
2013-08-25 19:45:00,89.0,69.6,29.90,NW,315,3.0,13.0,53,0.00,,,-99.99,Weather View 32 v60,2013-08-26 00:45:00,
2013-08-25 19:50:00,88.0,69.2,29.90,West,270,3.0,12.0,54,0.00,,,-99.99,Weather View 32 v60,2013-08-26 00:50:00,
2013-08-25 19:55:00,88.0,69.2,29.89,West,270,4.0,12.0,54,0.00,,,-99.99,Weather View 32 v60,2013-08-26 00:55:00,
2013-08-25 20:00:00,88.0,69.7,29.89,SSW,202,2.0,12.0,55,0.00,,,-99.99,Weather View 32 v60,2013-08-26 01:00:00,
2013-08-25 20:05:00,88.0,69.7,29.90,NNW,338,3.0,14.0,55,0.00,,,-99.99,Weather View 32 v60,2013-08-26 01:05:00,
2013-08-25 20:10:00,87.0,69.3,29.90,West,270,4.0,14.0,56,0.00,,,-99.99,Weather View 32 v60,2013-08-26 01:10:00,
2013-08-25 20:15:00,87.0,69.3,29.90,West,270,6.0,14.0,56,0.00,,,-99.99,Weather View 32 v60,2013-08-26 01:15:00,
2013-08-25 20:20:00,87.0,69.3,29.90,WNW,292,4.0,14.0,56,0.00,,,-99.99,Weather View 32 v60,2013-08-26 01:20:00,
2013-08-25 20:25:00,87.0,69.9,29.91,SW,225,3.0,14.0,57,0.00,,,-99.99,Weather View 32 v60,2013-08-26 01:25:00,
2013-08-25 20:30:00,87.0,69.9,29.91,SW,225,5.0,14.0,57,0.00,,,-99.99,Weather View 32 v60,2013-08-26 01:30:00,
2013-08-25 20:35:00,86.0,68.9,29.91,WSW,248,2.0,14.0,57,0.00,,,-99.99,Weather View 32 v60,2013-08-26 01:35:00,
2013-08-25 20:45:00,86.0,69.4,29.92,SW,225,1.0,14.0,58,0.00,,,-99.99,Weather View 32 v60,2013-08-26 01:45:00,
2013-08-25 20:50:00,86.0,69.4,29.92,West,270,2.0,14.0,58,0.00,,,-99.99,Weather View 32 v60,2013-08-26 01:50:00,
2013-08-25 21:00:00,85.0,69.0,29.92,SW,225,1.0,14.0,59,0.00,,,-99.99,Weather View 32 v60,2013-08-26 02:00:00,
2013-08-25 21:05:00,85.0,69.0,29.93,SSW,202,3.0,11.0,59,0.00,,,-99.99,Weather View 32 v60,2013-08-26 02:05:00,
2013-08-25 21:10:00,85.0,69.5,29.93,West,270,1.0,10.0,60,0.00,,,-99.99,Weather View 32 v60,2013-08-26 02:10:00,
2013-08-25 21:15:00,85.0,69.5,29.93,SW,225,2.0,10.0,60,0.00,,,-99.99,Weather View 32 v60,2013-08-26 02:15:00,
2013-08-25 21:22:00,85.0,69.5,29.93,SW,225,1.0,10.0,60,0.00,,,-99.99,Weather View 32 v60,2013-08-26 02:22:00,
2013-08-25 21:30:00,84.0,69.0,29.93,WNW,292,4.0,8.0,61,0.00,,,-99.99,Weather View 32 v60,2013-08-26 02:30:00,
2013-08-25 21:35:00,84.0,69.0,29.94,West,270,3.0,8.0,61,0.00,,,-99.99,Weather View 32 v60,2013-08-26 02:35:00,
2013-08-25 21:40:00,84.0,69.5,29.94,South,180,1.0,8.0,62,0.00,,,-99.99,Weather View 32 v60,2013-08-26 02:40:00,
2013-08-25 21:45:00,84.0,69.5,29.94,SW,225,1.0,8.0,62,0.00,,,-99.99,Weather View 32 v60,2013-08-26 02:45:00,
2013-08-25 21:50:00,84.0,69.5,29.94,SSW,202,2.0,8.0,62,0.00,,,-99.99,Weather View 32 v60,2013-08-26 02:50:00,
2013-08-25 21:55:00,84.0,70.0,29.94,WSW,248,1.0,8.0,63,0.00,,,-99.99,Weather View 32 v60,2013-08-26 02:55:00,
2013-08-25 22:00:00,83.0,69.1,29.94,SSW,202,0.0,8.0,63,0.00,,,-99.99,Weather View 32 v60,2013-08-26 03:00:00,
2013-08-25 22:05:00,83.0,69.1,29.94,SW,225,2.0,8.0,63,0.00,,,-99.99,Weather View 32 v60,2013-08-26 03:05:00,
2013-08-25 22:10:00,83.0,69.1,29.94,WSW,248,3.0,8.0,63,0.00,,,-99.99,Weather View 32 v60,2013-08-26 03:10:00,
2013-08-25 22:15:00,83.0,69.5,29.94,SW,225,3.0,8.0,64,0.00,,,-99.99,Weather View 32 v60,2013-08-26 03:15:00,
2013-08-25 22:20:00,83.0,69.5,29.94,WNW,292,2.0,9.0,64,0.00,,,-99.99,Weather View 32 v60,2013-08-26 03:20:00,
2013-08-25 22:25:00,83.0,70.0,29.94,SW,225,3.0,9.0,65,0.00,,,-99.99,Weather View 32 v60,2013-08-26 03:25:00,
2013-08-25 22:30:00,82.0,69.0,29.94,SW,225,3.0,9.0,65,0.00,,,-99.99,Weather View 32 v60,2013-08-26 03:30:00,
2013-08-25 22:35:00,82.0,69.0,29.94,SW,225,5.0,9.0,65,0.00,,,-99.99,Weather View 32 v60,2013-08-26 03:35:00,
2013-08-25 22:40:00,82.0,69.5,29.94,WSW,248,2.0,9.0,66,0.00,,,-99.99,Weather View 32 v60,2013-08-26 03:40:00,
2013-08-25 22:45:00,82.0,69.5,29.94,SW,225,0.0,9.0,66,0.00,,,-99.99,Weather View 32 v60,2013-08-26 03:45:00,
2013-08-25 22:50:00,82.0,69.5,29.94,WNW,292,3.0,9.0,66,0.00,,,-99.99,Weather View 32 v60,2013-08-26 03:50:00,
2013-08-25 22:55:00,82.0,69.9,29.94,SW,225,2.0,9.0,67,0.00,,,-99.99,Weather View 32 v60,2013-08-26 03:55:00,
2013-08-25 23:05:00,82.0,69.9,29.93,West,270,3.0,9.0,67,0.00,,,-99.99,Weather View 32 v60,2013-08-26 04:05:00,
2013-08-25 23:10:00,82.0,69.9,29.93,West,270,2.0,9.0,67,0.00,,,-99.99,Weather View 32 v60,2013-08-26 04:10:00,
2013-08-25 23:15:00,82.0,69.9,29.93,SSW,202,2.0,9.0,67,0.00,,,-99.99,Weather View 32 v60,2013-08-26 04:15:00,
2013-08-25 23:20:00,82.0,69.9,29.93,West,270,5.0,9.0,67,0.00,,,-99.99,Weather View 32 v60,2013-08-26 04:20:00,
2013-08-25 23:25:00,82.0,70.3,29.92,WSW,248,3.0,9.0,68,0.00,,,-99.99,Weather View 32 v60,2013-08-26 04:25:00,
2013-08-25 23:30:00,82.0,70.3,29.92,WSW,248,1.0,9.0,68,0.00,,,-99.99,Weather View 32 v60,2013-08-26 04:30:00,
2013-08-25 23:35:00,82.0,70.3,29.92,SSW,202,3.0,9.0,68,0.00,,,-99.99,Weather View 32 v60,2013-08-26 04:35:00,
2013-08-25 23:40:00,82.0,70.3,29.92,SW,225,3.0,9.0,68,0.00,,,-99.99,Weather View 32 v60,2013-08-26 04:40:00,
2013-08-25 23:45:00,82.0,70.8,29.92,WSW,248,3.0,9.0,69,0.00,,,-99.99,Weather View 32 v60,2013-08-26 04:45:00,
2013-08-25 23:50:00,81.0,69.8,29.93,NW,315,3.0,9.0,69,0.00,,,-99.99,Weather View 32 v60,2013-08-26 04:50:00,
2013-08-25 23:55:00,81.0,69.8,29.93,West,270,3.0,9.0,69,0.00,,,-99.99,Weather View 32 v60,2013-08-26 04:55:00,